Location: Newark
(7.0858°N, 171.3717°E)
Time: 06:46:08
(UTC+00:00)

A-11 Canister half - All Passes

Search period start: 27 November 2020 00:00
Search period end: 07 December 2020 00:00
Orbit: 1516 x 1684 km, 47.2° (Epoch: 26 November)

Date Brightness Start Highest point End Pass type
(mag) Time Alt. Az. Time Alt. Az. Time Alt. Az.
27 Nov - 07:52:36 10° NNW 08:01:46 39° NE 08:10:42 10° ESE visible
27 Nov - 09:57:12 10° WNW 10:06:41 49° SW 10:15:54 10° SSE visible
27 Nov - 20:47:23 10° SSW 20:56:03 41° SE 21:04:57 10° ENE daylight
27 Nov - 22:51:57 10° WSW 23:00:48 43° NW 23:10:00 10° NNE daylight
28 Nov - 07:29:48 10° NNW 07:38:47 36° NE 07:47:33 10° ESE visible
28 Nov - 09:34:07 10° NW 09:43:46 53° SW 09:53:09 10° SSE visible
28 Nov - 20:24:42 10° SSW 20:33:09 38° SE 20:41:48 10° ENE daylight
28 Nov - 22:28:52 10° WSW 22:37:51 47° NW 22:47:10 10° NNE daylight
29 Nov - 07:07:01 10° NNW 07:15:48 33° NE 07:24:22 10° ESE visible
29 Nov - 09:11:04 10° NW 09:20:51 58° SW 09:30:22 10° SSE visible
29 Nov - 20:02:02 10° S 20:10:15 34° SE 20:18:38 10° ENE daylight
29 Nov - 22:05:50 10° WSW 22:14:54 51° NW 22:24:19 10° NNE daylight
30 Nov - 06:44:15 10° NNW 06:52:48 30° NE 07:01:09 10° ESE visible
30 Nov - 08:48:01 10° NW 08:57:56 63° SW 09:07:33 10° SSE visible
30 Nov - 19:39:25 10° S 19:47:21 31° SE 19:55:25 10° ENE daylight
30 Nov - 21:42:49 10° SW 21:51:58 55° NW 22:01:28 10° NNE daylight
30 Nov - 23:56:40 10° NW 23:58:19 10° NW 23:59:59 10° NNW daylight
01 Dec - 06:21:30 10° NNW 06:29:47 28° NE 06:37:54 10° E visible
01 Dec - 08:25:00 10° NW 08:35:00 68° SW 08:44:44 10° SSE visible
01 Dec - 10:37:38 10° WSW 10:39:54 11° SW 10:42:09 10° SW visible
01 Dec - 19:16:49 10° S 19:24:27 28° SE 19:32:11 10° ENE daylight
01 Dec - 21:19:49 10° SW 21:29:02 60° NW 21:38:36 10° NNE daylight
01 Dec - 23:32:10 10° NW 23:35:13 12° NW 23:38:19 10° NNW daylight
02 Dec - 05:58:47 10° N 06:06:46 26° NE 06:14:37 10° E daylight
02 Dec - 08:01:59 10° NW 08:12:04 74° SW 08:21:54 10° SSE visible
02 Dec - 10:13:08 10° WSW 10:16:56 13° SW 10:20:42 10° SSW visible
02 Dec - 18:54:15 10° S 19:01:32 26° SE 19:08:55 10° ENE daylight
02 Dec - 20:56:51 10° SW 21:06:07 65° NW 21:15:44 10° NNE daylight
02 Dec - 23:08:12 10° WNW 23:12:08 13° NW 23:16:09 10° NNW daylight
03 Dec - 05:36:06 10° N 05:43:45 24° NE 05:51:17 10° E daylight
03 Dec - 07:39:00 10° NW 07:49:09 80° SW 07:59:02 10° SE visible
03 Dec - 09:49:09 10° W 09:53:58 14° SW 09:58:44 10° SSW visible
03 Dec - 18:31:44 10° S 18:38:38 23° SE 18:45:36 10° E daylight
03 Dec - 20:33:53 10° SW 20:43:12 71° NW 20:52:50 10° NE daylight
03 Dec - 22:44:25 10° WNW 22:49:05 14° NW 22:53:48 10° N daylight
04 Dec - 05:13:26 10° N 05:20:42 22° NE 05:27:53 10° E daylight
04 Dec - 07:16:02 10° NW 07:26:13 86° SW 07:36:09 10° SE visible
04 Dec - 09:25:24 10° W 09:31:00 16° SW 09:36:33 10° SSW visible
04 Dec - 18:09:15 10° S 18:15:43 21° SE 18:22:13 10° E visible
04 Dec - 20:10:58 10° SW 20:20:17 77° NW 20:29:56 10° NE daylight
04 Dec - 22:20:47 10° WNW 22:26:01 16° NW 22:31:22 10° N daylight
05 Dec - 04:50:48 10° N 04:57:40 20° NE 05:04:27 10° E daylight
05 Dec - 06:53:04 10° NW 07:03:16 88° NE 07:13:14 10° SE visible
05 Dec - 09:01:47 10° W 09:08:02 18° SW 09:14:15 10° S visible
05 Dec - 17:46:51 10° S 17:52:47 19° SE 17:58:46 10° E visible
05 Dec - 19:48:03 10° SW 19:57:23 83° NW 20:07:01 10° NE daylight
05 Dec - 21:57:15 10° WNW 22:02:58 17° NW 22:08:50 10° N daylight
06 Dec - 04:28:12 10° N 04:34:37 18° NE 04:40:57 10° E daylight
06 Dec - 06:30:08 10° NW 06:40:20 82° NE 06:50:19 10° SE visible
06 Dec - 08:38:15 10° W 08:45:05 20° SW 08:51:51 10° S visible
06 Dec - 17:24:31 10° SSE 17:29:52 17° SE 17:35:14 10° E visible
06 Dec - 19:25:09 10° SW 19:34:29 89° NW 19:44:05 10° NE daylight
06 Dec - 21:33:47 10° W 21:39:56 19° NW 21:46:15 10° N daylight
